Theta_e
302 302 302 303 303 303 304 305 306 306 306 307 308 308 307 304 299 300 297 300 303 308 306 304 304 303 304 303 302 307 311 312 314 315 313 311 310 310 312 315 311 317 318 315 310
301 301 301 302 302 303 303 304 304 304 305 305 306 308 309 307 298 294 295 299 301 301 305 303 302 301 300 303 302 305 307 308 308 308 307 304 305 305 308 306 305 305 305 307 307
300 300 300 301 301 302 302 302 303 303 304 305 305 306 310 309 298 294 293 294 300 300 304 303 300 301 302 302 302 302 302 304 303 302 300 302 302 302 303 303 303 304 305 303 304
299 299 299 300 300 302 305 305 307 306 303 304 304 306 309 305 303 291 292 292 298 300 300 304 300 300 301 302 299 302 301 300 301 300 300 300 300 301 301 302 302 302 301 301 301
298 298 299 299 301 305 309 308 307 302 303 302 305 301 297 289 290 290 292 292 297 300 298 302 300 299 301 301 299 299 299 299 299 299 299 299 299 300 301 301 300 300 300 300 301
297 297 298 299 304 307 307 307 306 303 304 306 304 296 293 288 289 290 291 293 295 297 297 300 301 301 300 300 299 297 299 299 298 297 297 297 298 299 299 297 298 299 299 299 299
297 296 297 299 305 306 306 307 306 306 304 298 295 293 290 288 289 290 290 291 294 296 297 297 297 296 296 298 294 297 298 297 296 295 296 296 300 298 295 294 295 295 296 298 299
296 296 296 300 305 301 301 301 307 307 301 296 295 293 288 289 289 290 290 293 294 295 296 296 293 291 290 290 294 294 295 296 295 291 293 294 298 294 293 292 292 293 293 295 297
296 296 296 297 299 298 297 295 296 294 293 294 292 290 288 289 288 288 290 289 292 292 290 291 289 286 288 289 292 289 291 291 291 290 289 290 290 292 291 290 291 291 291 290 290
296 296 296 297 299 296 296 294 292 295 292 291 290 290 288 286 287 287 290 289 290 290 288 286 285 286 287 287 289 288 287 287 286 287 288 288 289 288 292 292 290 291 289 289 287
296 295 295 294 299 297 298 297 290 288 288 286 287 287 287 287 287 286 288 288 287 289 286 285 285 285 284 285 286 285 285 284 285 287 287 287 287 292 292 292 291 290 288 288 287
296 294 293 294 295 298 297 291 290 288 287 287 287 287 287 287 285 286 288 285 285 285 286 285 284 284 287 287 285 285 285 284 285 287 287 287 288 292 292 292 292 291 289 288 287
296 293 290 291 294 296 293 290 289 288 287 287 287 286 287 287 285 285 286 286 284 285 284 284 284 286 286 285 286 285 285 285 285 287 287 287 289 293 292 291 291 290 290 288 287
295 292 289 291 294 292 290 292 292 290 285 288 287 286 286 286 285 286 286 286 285 284 284 284 285 286 285 285 285 286 286 286 286 287 289 287 291 290 292 291 291 290 289 288 287
294 288 289 290 291 290 291 293 294 292 288 287 286 287 287 285 284 285 286 285 285 285 284 284 285 285 284 285 286 286 286 287 287 287 287 290 290 292 292 291 290 290 289 288 286
294 288 288 289 290 290 293 294 292 290 285 283 285 287 286 286 285 285 285 285 284 285 285 284 285 285 284 285 285 286 286 287 288 288 286 290 288 288 292 291 290 289 288 287 286
293 289 287 287 286 292 294 290 290 289 282 281 284 287 285 285 285 285 285 284 282 282 283 284 285 284 285 285 285 286 284 285 286 285 287 286 287 288 292 291 290 289 288 287 286
290 290 287 286 287 294 291 288 286 277 276 285 286 285 285 284 284 284 284 283 283 282 281 283 285 284 284 285 283 287 283 283 283 287 285 286 290 292 290 289 288 287 286 286 286
290 288 287 286 291 293 287 283 284 281 283 286 284 282 277 284 283 283 283 280 280 279 278 278 282 283 285 285 283 282 282 283 278 283 285 286 287 288 290 287 287 286 286 285 285
290 287 286 286 290 287 283 282 279 285 286 285 283 282 276 276 281 281 282 278 284 284 278 282 280 284 285 284 285 281 282 281 280 276 279 284 286 287 289 288 287 286 285 285 284
287 284 285 285 286 281 283 273 281 287 286 287 284 280 282 279 279 277 280 282 281 285 282 275 278 284 283 282 282 282 282 282 282 282 283 284 284 279 286 287 286 285 285 284 283
285 285 285 284 284 264 273 278 287 286 285 286 284 285 282 282 279 279 279 281 282 282 284 280 278 279 282 282 281 279 279 281 278 279 283 283 282 284 285 286 286 286 285 284 283
279 280 285 285 282 272 275 283 286 286 286 285 286 286 284 284 279 283 284 285 283 283 280 279 277 277 282 278 280 278 283 284 281 281 281 279 283 283 286 282 284 285 284 284 284
278 285 281 278 278 279 276 281 283 286 285 284 283 283 284 283 283 277 284 285 284 285 287 285 274 277 283 283 276 277 279 284 278 276 281 283 284 285 284 283 283 284 284 282 282
277 275 273 277 278 273 278 282 285 285 282 285 284 281 278 277 280 281 283 284 285 286 286 282 278 274 280 282 282 282 281 281 282 282 280 285 283 284 283 281 282 284 284 285 284
278 278 270 269 275 274 278 281 284 285 282 282 279 283 281 277 281 281 280 282 282 279 280 276 275 272 275 282 282 282 282 281 282 283 282 283 283 284 283 283 281 284 285 285 284
282 281 278 279 272 276 278 283 285 284 283 283 282 282 283 283 280 279 282 283 282 280 281 277 275 273 276 278 279 278 279 281 281 276 282 282 283 283 283 283 283 284 284 284 285
Wind_Speed
19 18 17 18 17 16 14 11 9 8 6 4 3 2 12 12 23 31 20 20 21 22 16 10 7 10 2 3 2 3 3 3 5 4 6 4 6 5 3 6 4 2 5 12 34
18 19 20 19 18 18 16 15 12 8 5 2 1 2 6 7 17 28 24 25 17 18 12 9 5 7 3 2 2 4 4 9 4 2 5 9 2 5 2 6 17 15 11 23 26
18 18 18 17 17 17 17 17 14 9 5 2 1 4 7 9 6 6 29 23 15 13 9 5 2 2 3 2 2 2 5 1 3 4 7 10 14 2 5 4 8 12 18 12 23
21 21 20 19 18 17 16 12 11 9 5 3 3 9 8 5 1 12 30 23 13 10 6 4 3 2 3 2 3 1 3 3 6 9 7 10 12 12 10 10 14 14 13 10 16
22 22 21 19 17 17 15 10 6 5 3 6 13 11 6 8 4 25 26 14 8 6 7 3 4 2 3 1 4 2 4 7 8 10 9 11 9 17 18 16 12 14 15 16 18
23 23 22 21 16 18 16 12 9 15 15 14 13 10 8 7 16 24 21 13 11 8 5 6 2 3 4 3 3 4 5 8 7 12 7 18 12 1 11 20 20 20 20 19 18
22 22 21 19 14 16 20 19 19 18 16 18 23 22 21 4 22 25 23 17 11 6 3 8 9 8 3 3 5 4 5 3 10 14 7 19 4 8 17 29 25 22 22 21 18
21 23 20 17 14 12 14 17 14 11 9 10 7 9 6 8 22 30 29 15 20 17 11 16 16 10 6 7 5 6 5 6 5 20 8 9 5 20 30 26 30 27 21 20 22
21 22 17 12 12 12 18 13 12 14 16 3 8 9 3 12 23 29 20 12 8 16 26 18 12 6 9 4 4 11 4 6 13 16 14 15 14 18 26 25 23 24 23 22 21
21 21 16 3 4 8 8 10 23 3 9 8 18 6 8 7 14 26 19 20 9 4 8 12 7 5 9 9 2 5 5 6 11 9 9 14 10 21 19 18 14 16 19 18 19
20 19 14 9 5 5 3 1 5 8 22 6 2 5 3 16 3 23 25 9 10 9 6 8 12 10 5 6 4 3 4 10 9 4 14 7 12 8 12 15 16 16 16 21 20
19 19 11 7 3 2 5 7 2 8 9 13 6 5 4 10 6 28 27 8 9 6 3 6 10 4 2 3 3 2 5 5 12 9 10 5 10 2 9 12 11 14 17 18 22
20 20 12 4 6 6 14 7 10 7 6 5 3 4 5 8 6 14 11 4 7 12 10 7 4 4 4 2 11 3 1 5 9 14 4 5 2 5 7 11 15 16 15 16 18
18 19 14 4 4 6 5 9 6 2 5 9 8 7 6 4 5 13 12 2 6 4 3 6 2 3 3 3 8 3 3 12 15 7 3 4 4 4 6 10 17 18 17 16 17
14 16 9 4 10 4 5 7 4 1 4 5 5 5 5 6 5 10 15 6 5 4 2 2 2 3 3 5 8 7 14 12 9 3 1 3 1 3 4 12 18 18 16 15 15
11 10 8 4 7 6 8 7 2 6 3 2 3 5 3 7 4 6 7 8 2 4 8 3 1 1 2 8 3 14 5 1 2 2 3 4 4 3 4 7 15 15 15 15 16
9 3 15 5 3 6 11 3 5 5 5 4 1 3 4 6 6 8 5 8 4 4 6 3 1 3 3 4 4 12 4 4 5 5 3 1 3 7 2 4 8 11 14 13 14
4 3 11 10 4 13 4 5 5 2 5 3 2 3 4 6 3 5 2 3 5 4 3 3 3 3 5 3 3 6 4 4 3 4 6 8 5 5 5 3 4 4 6 12 12
2 4 5 8 10 10 5 5 6 6 5 7 3 5 3 1 1 3 4 3 3 1 5 3 3 2 1 1 3 3 4 3 4 2 2 5 6 4 2 4 7 10 9 11 12
4 5 6 3 10 4 5 4 3 1 4 2 4 1 3 3 2 4 1 3 2 2 2 2 3 2 0 1 2 5 3 2 3 3 6 6 6 7 3 6 8 10 7 10 11
3 3 7 7 5 6 4 5 3 2 1 2 3 3 3 3 3 2 3 2 3 4 3 3 3 2 4 4 6 1 2 3 3 4 3 5 8 7 6 3 5 7 5 6 9
2 2 6 8 4 1 3 5 3 2 2 2 4 3 4 4 3 1 4 5 6 5 4 4 4 4 7 1 4 3 6 5 4 4 4 2 9 6 6 5 6 6 7 6 5
2 2 4 3 3 1 3 1 2 2 2 2 3 3 2 4 2 4 3 2 8 5 6 4 1 4 3 4 4 3 5 4 2 3 7 5 7 4 6 5 6 6 7 7 8
3 2 4 5 1 6 5 1 3 1 2 3 4 4 3 2 1 3 3 2 8 5 9 6 3 7 6 4 4 2 4 11 6 3 4 15 17 22 16 16 8 7 8 7 7
4 1 3 2 4 4 3 3 4 3 2 2 2 4 6 3 1 3 4 2 4 6 3 4 5 4 12 14 13 17 13 13 17 21 9 22 10 22 11 9 14 9 7 8 8
3 4 3 2 1 3 3 4 6 3 6 3 4 4 6 6 8 7 6 4 6 2 4 1 3 2 6 8 13 17 18 20 25 27 26 31 30 30 25 18 10 13 9 9 8
3 3 4 2 2 3 3 5 6 6 3 4 5 4 6 14 6 6 6 6 6 9 7 6 3 3 6 6 9 9 11 11 8 5 16 16 20 13 13 11 9 10 9 8 10
Wind_Direction
10 7 1 356 352 347 341 339 341 346 351 4 24 66 131 94 57 56 42 342 334 338 347 347 12 12 58 73 64 124 83 228 237 218 261 360 29 311 341 298 295 241 292 298 312
9 3 359 354 349 341 335 330 324 325 329 342 8 124 148 132 58 49 355 353 359 353 348 3 357 359 55 63 44 108 147 220 228 302 312 306 167 306 302 305 288 301 286 300 313
9 5 1 353 347 338 328 321 313 304 296 303 283 149 143 151 71 335 352 353 354 357 341 353 342 93 77 36 54 91 193 242 297 328 10 308 316 346 291 285 249 284 299 315 308
8 5 1 354 348 343 337 332 328 311 254 227 128 110 121 122 161 330 340 344 350 352 15 16 20 67 91 90 18 354 265 22 320 335 325 304 303 301 258 266 283 288 293 316 309
7 3 2 360 358 2 360 355 4 4 131 141 130 124 111 50 7 334 341 352 352 3 36 33 57 71 92 341 342 135 339 335 306 296 297 320 293 287 310 316 322 332 340 338 329
7 5 5 4 24 27 21 40 70 89 87 124 124 113 71 70 348 350 354 14 19 17 31 45 100 100 78 54 55 309 276 300 355 349 358 348 306 338 18 357 346 348 342 337 337
8 6 7 11 41 44 54 72 87 98 68 105 117 85 72 151 356 3 14 25 28 30 63 37 61 73 325 13 8 299 325 346 33 356 21 338 28 78 356 344 336 335 325 322 316
7 6 5 28 60 56 70 70 90 82 88 91 91 89 105 2 356 18 18 56 64 66 89 86 72 93 42 302 30 28 58 360 13 9 359 22 274 347 345 334 327 332 342 332 323
5 5 4 31 80 72 63 83 96 68 68 103 37 88 26 343 357 1 17 2 10 60 56 62 63 65 356 28 41 25 329 338 324 347 350 26 317 325 319 323 330 358 9 19 11
3 6 8 59 133 125 86 72 66 119 32 44 34 59 18 319 342 353 11 24 30 8 23 30 53 66 27 36 57 328 328 292 299 317 359 310 303 325 6 34 16 355 353 7 6
3 7 14 21 182 176 6 20 19 11 34 73 304 99 330 337 28 1 360 2 23 46 65 19 60 41 355 82 156 219 262 291 286 325 356 7 310 41 20 32 11 9 5 358 357
5 3 7 23 57 202 6 71 93 146 82 33 39 46 13 354 7 2 11 61 31 74 54 61 60 317 318 49 343 264 301 308 303 335 330 342 304 291 37 31 21 5 2 2 350
4 4 2 25 46 75 81 81 122 120 80 27 41 35 332 8 42 355 18 40 58 56 45 85 162 300 36 27 0 303 231 310 291 326 333 327 298 332 6 23 8 13 6 360 359
1 4 18 84 78 85 61 116 129 78 83 341 349 5 355 352 60 16 13 82 43 118 99 78 344 343 1 37 359 306 167 311 301 328 322 63 289 295 325 350 4 356 356 353 351
357 12 20 82 122 74 132 134 129 28 63 350 343 327 349 72 296 355 13 34 70 59 153 236 17 341 39 349 332 258 317 288 288 212 328 12 2 268 325 348 348 343 344 346 351
349 15 22 69 75 91 139 142 99 44 252 354 329 357 36 13 33 323 21 35 71 53 48 83 316 302 277 314 281 306 327 357 116 111 36 164 51 284 13 319 329 334 344 344 347
342 32 32 61 111 128 138 94 42 118 345 291 35 31 90 12 18 18 34 31 60 69 19 336 140 326 12 335 329 346 12 358 357 9 247 25 351 250 233 289 305 327 335 339 344
351 172 25 25 125 144 131 57 88 234 215 224 139 91 82 5 33 356 84 40 31 54 75 51 339 17 348 119 222 3 56 117 259 313 301 321 225 257 188 225 289 292 320 338 339
136 148 32 14 137 148 76 65 194 197 162 157 93 78 352 21 107 49 43 149 226 79 120 64 274 327 220 62 112 310 52 189 90 9 315 275 290 297 191 333 350 357 350 341 334
167 145 29 87 145 112 74 160 149 251 132 149 124 94 151 282 78 59 10 221 186 174 131 174 351 196 63 98 58 113 188 115 39 28 299 279 279 246 290 337 332 336 323 330 328
151 73 10 139 134 50 114 205 206 226 163 120 136 115 153 157 142 189 204 254 224 167 95 125 105 285 27 202 176 94 110 61 119 148 205 303 264 221 197 220 281 290 303 304 320
92 57 11 168 47 19 91 181 199 141 64 92 97 112 147 148 134 187 211 214 180 152 161 198 143 264 227 300 354 154 189 145 130 231 223 217 265 238 204 192 220 297 303 289 302
93 204 2 159 114 24 305 48 109 139 171 117 105 108 160 152 64 199 212 211 164 148 166 199 287 335 358 3 4 184 198 177 117 117 212 156 258 226 214 281 348 291 289 294 307
75 43 346 47 83 120 133 191 118 71 98 99 119 74 100 94 182 193 233 229 183 191 172 151 175 197 207 197 128 207 217 198 154 168 213 226 269 272 261 286 285 288 290 274 274
26 247 181 335 5 75 70 145 136 170 9 124 51 172 158 136 37 220 199 299 201 219 213 148 231 203 257 273 264 257 237 213 218 227 213 266 249 266 273 276 283 266 266 275 270
101 123 1 119 319 69 354 217 160 166 142 248 166 200 171 176 188 194 154 189 209 5 137 37 267 122 279 260 259 262 256 232 234 244 245 257 273 273 276 273 252 251 260 267 276
78 97 100 327 36 79 224 184 201 150 236 173 173 130 201 238 205 210 193 189 182 163 180 160 157 47 265 342 307 285 244 201 191 216 220 231 241 267 273 258 234 239 238 252 272